Regional Weather Roundup
Issued by NWS

Home | Current Version | Previous Version | Graphics & Text | Print | Product List | Glossary On
Versions: 1 2 3 4 5 6 7 8 9 10 11 12 13 14 15 16 17 18 19 20 21 22 23 24 25 26 27 28 29 30 31 32 33 34 35 36 37 38 39 40 41 42 43 44 45 46 47 48 49 50
000
ASUS43 KOAX 021110
RWRNE

WEATHER ROUNDUP FOR NEBRASKA
NATIONAL WEATHER SERVICE OMAHA NE
600 AM CDT TUE JUN 02 2015

NOTES: SATELLITE DATA IS BEING USED TO AUGMENT CLOUD COVER ABOVE
       12000 FEET.
       "FAIR" INDICATES FEW OR NO CLOUDS BELOW 12,000 FEET WITH NO
       SIGNIFICANT WEATHER AND/OR OBSTRUCTIONS TO VISIBILITY.

  * THESE STATIONS DO NOT REPORT WEATHER SUCH AS RAIN...SNOW OR FOG.

NEZ001>004-019>022-054>056-021200-
NEBRASKA PANHANDLE

CITY           SKY/WX    TMP DP  RH WIND       PRES   REMARKS
SCOTTSBLUFF    MOCLDY    57  53  86 N10       29.90R
ALLIANCE       MOCLDY    58  55  90 SE9       29.85F
CHADRON        PTCLDY    59  52  77 CALM      29.86S
KIMBALL          N/A    N/A N/A N/A MISG        N/A
SIDNEY         PTCLDY    59  55  87 S12G21    29.98R
$$

NEZ057>060-069>072-079>082-021200-
SOUTHWEST NEBRASKA

CITY           SKY/WX    TMP DP  RH WIND       PRES   REMARKS
NORTH PLATTE   LGT RAIN  64  54  69 CALM      29.81F
IMPERIAL       MOCLDY    58  56  93 S12       29.92F
LEXINGTON      CLOUDY    64  61  90 S13       29.86F
MCCOOK         CLOUDY    60  58  92 S7        29.94R
OGALLALA       PTCLDY    62  55  78 SW10G18   29.88R
$$

NEZ005>010-023>029-035>040-094-021200-
NORTH CENTRAL NEBRASKA

CITY           SKY/WX    TMP DP  RH WIND       PRES   REMARKS
AINSWORTH      CLOUDY    63  59  88 SE8       29.86R
BROKEN BOW     CLOUDY    66  58  75 SW5       29.87F
O`NEILL        CLOUDY    62  58  84 S16G22    29.90F
ORD            CLOUDY    61  57  87 SE13      29.89F
THEDFORD       CLOUDY    62  56  83 S6        29.87S
$$

NEZ041-046>049-061>064-073>077-083>087-021200-
SOUTH CENTRAL NEBRASKA

CITY           SKY/WX    TMP DP  RH WIND       PRES   REMARKS
GRAND ISLAND   CLOUDY    60  56  86 SE17      29.96F
AURORA         CLOUDY    59  58  97 SE15      29.98F
HASTINGS       CLOUDY    61  57  87 S12       29.97F
HEBRON         CLOUDY    59  54  84 SE9       30.02S THUNDER
HOLDREGE       CLOUDY    60  58  93 S15       29.97R
KEARNEY *      CLOUDY    61  57  88 S16       29.90F
YORK           CLOUDY    57  55  94 S13       30.02S
$$

NEZ011>018-030>034-042>045-021200-
NORTHEAST NEBRASKA

CITY           SKY/WX    TMP DP  RH WIND       PRES   REMARKS
NORFOLK        CLOUDY    59  55  87 SE15G23   29.97F
ALBION         CLOUDY    60  55  83 SE13G21   29.96S
BLAIR          MOCLDY    56  52  84 SE9G17    30.05F
COLUMBUS *     CLOUDY    59  52  77 SE10      30.02F
FREMONT        MOCLDY    58  53  84 SE10      30.04F
TEKAMAH        MOCLDY    58  54  86 SE13      30.04F
WAYNE          CLOUDY    59  55  85 SE17G24   29.99F
$$

NEZ050>053-065>068-078-088>093-021200-
SOUTHEAST NEBRASKA

CITY           SKY/WX    TMP DP  RH WIND       PRES   REMARKS
LINCOLN        MOCLDY    58  53  84 S13       30.04F
OMAHA EPPLEY   CLOUDY    57  53  86 SE12      30.06F
BEATRICE       MOCLDY    56  53  88 SE10      30.04S
FALLS CITY     MOCLDY    55  52  89 SE5       30.07R
NEBRASKA CITY  CLOUDY    56  54  93 S8        30.08R
PLATTSMOUTH    MOCLDY    56  52  89 SE8       30.07S
$$

NEZ044-045-051>053-067-021200-
OMAHA AREA

CITY           SKY/WX    TMP DP  RH WIND       PRES   REMARKS
OMAHA EPPLEY   CLOUDY    57  53  86 SE12      30.06F
BLAIR          MOCLDY    56  52  84 SE9G17    30.05F
FREMONT        MOCLDY    58  53  84 SE10      30.04F
MILLARD        CLOUDY    58  54  86 SE9       30.05F
OFFUTT AFB     MOCLDY    54  52  94 E6        30.06S
PLATTSMOUTH    MOCLDY    56  52  89 SE8       30.07S
WAHOO          FAIR      57  53  87 SE13      30.04S
$$



USA.gov is the U.S. government's official web portal to all federal, state and local government web resources and services.